TimeMST,TemperatureF,Dew PointF,Humidity,Sea Level PressureIn,VisibilityMPH,Wind Direction,Wind SpeedMPH,Gust SpeedMPH,PrecipitationIn,Events,Conditions,WindDirDegrees,DateUTC
12:53 AM,16.0,5.0,62,30.12,10.0,North,3.5,-,N/A,,Clear,350,2013-02-12 07:53:00
1:53 AM,10.9,3.0,70,30.15,10.0,North,5.8,-,N/A,,Clear,350,2013-02-12 08:53:00
2:53 AM,10.0,3.9,76,30.14,10.0,NW,5.8,-,N/A,,Clear,310,2013-02-12 09:53:00
3:53 AM,8.1,3.0,80,30.14,10.0,WNW,4.6,-,N/A,,Clear,300,2013-02-12 10:53:00
4:53 AM,10.0,3.9,76,30.13,10.0,NW,11.5,-,N/A,,Clear,310,2013-02-12 11:53:00
5:53 AM,10.9,5.0,77,30.15,10.0,NW,10.4,-,N/A,,Clear,310,2013-02-12 12:53:00
6:53 AM,8.1,3.0,80,30.17,10.0,WNW,6.9,-,N/A,,Clear,300,2013-02-12 13:53:00
7:53 AM,17.1,8.1,68,30.18,10.0,WNW,9.2,-,N/A,,Clear,300,2013-02-12 14:53:00
8:53 AM,25.0,10.0,53,30.16,10.0,WNW,13.8,-,N/A,,Clear,290,2013-02-12 15:53:00
9:53 AM,30.9,8.1,38,30.15,10.0,WNW,18.4,25.3,N/A,,Clear,300,2013-02-12 16:53:00
10:53 AM,37.0,8.1,30,30.13,10.0,WNW,20.7,28.8,N/A,,Clear,300,2013-02-12 17:53:00
11:53 AM,39.0,7.0,27,30.10,10.0,NW,23.0,31.1,N/A,,Clear,310,2013-02-12 18:53:00
12:53 PM,42.1,9.0,26,30.07,10.0,WNW,16.1,27.6,N/A,,Clear,300,2013-02-12 19:53:00
1:53 PM,42.1,9.0,26,30.08,10.0,WNW,20.7,26.5,N/A,,Clear,290,2013-02-12 20:53:00
2:53 PM,42.1,10.0,27,30.09,10.0,WNW,19.6,27.6,N/A,,Overcast,300,2013-02-12 21:53:00
3:53 PM,41.0,10.9,29,30.10,10.0,NW,17.3,21.9,N/A,,Scattered Clouds,310,2013-02-12 22:53:00
4:53 PM,36.0,12.9,39,30.11,10.0,West,12.7,-,N/A,,Clear,270,2013-02-12 23:53:00
5:53 PM,32.0,14.0,48,30.12,10.0,WNW,16.1,24.2,N/A,,Clear,290,2013-02-13 00:53:00
6:53 PM,28.9,14.0,54,30.15,10.0,West,10.4,-,N/A,,Clear,280,2013-02-13 01:53:00
7:53 PM,24.1,12.9,62,30.15,10.0,WNW,3.5,-,N/A,,Clear,290,2013-02-13 02:53:00
8:53 PM,23.0,12.0,63,30.13,10.0,West,3.5,-,N/A,,Clear,280,2013-02-13 03:53:00
9:53 PM,21.0,12.0,68,30.12,10.0,WNW,9.2,-,N/A,,Clear,300,2013-02-13 04:53:00
10:53 PM,19.9,12.0,71,30.08,10.0,WNW,6.9,-,N/A,,Mostly Cloudy,300,2013-02-13 05:53:00
11:53 PM,19.9,12.0,71,30.06,10.0,NW,4.6,-,N/A,,Mostly Cloudy,310,2013-02-13 06:53:00